Whitefield, NH

2:57 PM EDT on May 27, 2018 (GMT -0400)
Mount Washington Regional

Weather History for KHIE - November, 2011

Change the Weather History Date:

Tuesday, November 1, 2011

  Actual Average Record
Temperature  
Mean Temperature 38 °F -  
Max Temperature 53 °F 45 °F 68 °F (2003)
Min Temperature 25 °F 26 °F 21 °F (1996)
Degree Days  
Heating Degree Days 26    
Moisture  
Dew Point 28 °F    
Average Humidity 77    
Maximum Humidity 96    
Minimum Humidity 41    
Precipitation  
Precipitation 0.00 in - - ()
Sea Level Pressure  
Sea Level Pressure 30.37 in    
Wind  
Wind Speed 0 mph (SW)    
Max Wind Speed 5 mph    
Max Gust Speed -    
Visibility 10 miles    
Events      
Averages and records for this station are not official NWS values.
T = Trace of Precipitation, MM = Missing Value Source: NWS Daily Summary

Daily Weather History Graph

Daily Weather History Graph

Search for Another Location

Airport or City:

Astronomy

Nov. 01, 2011 Rise Set
Actual Time 7:22 AM EDT 5:35 PM EDT
Civil Twilight 6:52 AM EDT 6:06 PM EDT
Nautical Twilight 6:18 AM EDT 6:40 PM EDT
Astronomical Twilight 5:44 AM EDT 7:14 PM EDT
Moon 1:10 PM EDT (11/1) 11:13 PM EDT (11/1)
Length of Visible Light 11h 13m
Length of Day
10h 12m
Waxing Crescent, 39% of the Moon is Illuminated
Nov 1
Waxing Crescent
Nov 2
First Quarter
Nov 10
Full
Nov 18
Last Quarter
Nov 25
New

Hourly Weather History & Observations

Time (EDT) Temp. Dew Point Humidity Pressure Visibility Wind Dir Wind Speed Gust Speed Precip Events Conditions
1:52 AM 30.9 °F 30.0 °F 96% 30.38 in 10.0 mi Calm Calm - N/A   Scattered Clouds
2:52 AM 30.9 °F 30.0 °F 96% 30.38 in 10.0 mi Calm Calm - N/A   Mostly Cloudy
3:52 AM 30.9 °F 28.9 °F 92% 30.36 in 10.0 mi Calm Calm - N/A   Partly Cloudy
4:52 AM 28.9 °F 27.0 °F 92% 30.37 in 10.0 mi Calm Calm - N/A   Mostly Cloudy
5:52 AM 27.0 °F 25.0 °F 92% 30.39 in 9.0 mi Calm Calm - N/A   Clear
6:52 AM 25.0 °F 23.0 °F 92% 30.38 in 8.0 mi Calm Calm - N/A   Clear
7:52 AM 25.0 °F 23.0 °F 92% 30.40 in 10.0 mi Calm Calm - 0.00 in   Clear
8:52 AM 30.0 °F 28.0 °F 92% 30.40 in 10.0 mi Calm Calm - N/A   Clear
9:52 AM 37.0 °F 30.9 °F 79% 30.39 in 10.0 mi Calm Calm - N/A   Clear
10:52 AM 43.0 °F 30.9 °F 62% 30.38 in 10.0 mi Calm Calm - N/A   Clear
11:52 AM 48.0 °F 30.9 °F 52% 30.38 in 10.0 mi Calm Calm - N/A   Clear
12:52 PM 50.0 °F 30.9 °F 48% 30.34 in 10.0 mi SSE 3.5 mph - N/A   Clear
1:52 PM 51.1 °F 30.0 °F 44% 30.32 in 10.0 mi Calm Calm - N/A   Clear
3:52 PM 52.0 °F 28.9 °F 41% 30.32 in 10.0 mi WSW 3.5 mph - N/A   Clear
4:52 PM 50.0 °F 28.0 °F 43% 30.32 in 10.0 mi West 4.6 mph - N/A   Clear
5:52 PM 39.0 °F 32.0 °F 76% 30.35 in 10.0 mi Calm Calm - N/A   Clear
6:52 PM 34.0 °F 28.9 °F 82% 30.37 in 10.0 mi Calm Calm - N/A   Clear
7:52 PM 30.0 °F 28.0 °F 92% 30.38 in 10.0 mi Calm Calm - N/A   Clear
8:52 PM 28.9 °F 26.1 °F 89% 30.38 in 10.0 mi Calm Calm - N/A   Clear
9:52 PM 28.0 °F 25.0 °F 88% 30.38 in 10.0 mi Calm Calm - N/A   Clear